{"data":{"norad_id":64420,"intl_designator":"2025-129J","name":"STARLINK-34503","alt_names":[],"object_type":"PAYLOAD","status":"ACTIVE","operator":null,"country":"US","launch_date":"2025-06-17","launch_site_code":"AFWTR","launch_vehicle":null,"mission":null,"orbit_class":"UNKNOWN","rcs_meters":null,"size_class":null,"mass_kg":null,"dimensions":null,"purposes":["comms"],"wikipedia_slug":null,"has_3d_model":false,"image_url":null,"decayed_at":null,"tle_current":{"epoch":"2026-05-24T17:25:39.481824Z","epoch_age_seconds":98484,"freshness":"FRESH","line1":"1 64420U 25129J   26144.72615141  .00001723  00000+0  15215-3 0  9998","line2":"2 64420  70.0007 242.8633 0003367 267.4896  92.5878 14.98334473 52610","mean_motion":14.98334473,"eccentricity":0.0003367,"inclination_deg":70.0007,"raan_deg":242.8633,"arg_perigee_deg":267.4896,"mean_anomaly_deg":92.5878,"bstar":0.00015215,"rev_number":5261,"period_min":96.106712216051,"perigee_km":569.70193330628,"apogee_km":574.38218388434,"semimajor_km":6950.1790585953,"source":"CELESTRAK","updated_at":"2026-05-25T13:38:20.439981Z"}}}